TimeCDT,TemperatureF,Dew PointF,Humidity,Sea Level PressureIn,VisibilityMPH,Wind Direction,Wind SpeedMPH,Gust SpeedMPH,PrecipitationIn,Events,Conditions,WindDirDegrees,DateUTC
12:53 AM,37.0,25.0,62,30.24,10.0,West,4.6,-,N/A,,Clear,270,2012-10-07 05:53:00
1:53 AM,34.0,25.0,70,30.24,10.0,WNW,3.5,-,N/A,,Clear,300,2012-10-07 06:53:00
2:53 AM,30.9,24.1,76,30.24,10.0,WNW,3.5,-,N/A,,Clear,300,2012-10-07 07:53:00
3:53 AM,30.9,24.1,76,30.23,10.0,Calm,Calm,-,N/A,,Clear,0,2012-10-07 08:53:00
4:53 AM,30.9,25.0,79,30.22,10.0,Calm,Calm,-,N/A,,Clear,0,2012-10-07 09:53:00
5:53 AM,28.0,23.0,81,30.21,10.0,Calm,Calm,-,N/A,,Clear,0,2012-10-07 10:53:00
6:53 AM,26.1,21.9,84,30.21,10.0,Calm,Calm,-,N/A,,Clear,0,2012-10-07 11:53:00
7:53 AM,30.0,21.9,72,30.20,10.0,Calm,Calm,-,N/A,,Clear,0,2012-10-07 12:53:00
8:53 AM,34.0,24.1,67,30.20,10.0,Calm,Calm,-,N/A,,Clear,0,2012-10-07 13:53:00
9:53 AM,37.9,23.0,55,30.18,10.0,SW,10.4,-,N/A,,Clear,230,2012-10-07 14:53:00
10:53 AM,43.0,23.0,45,30.17,10.0,WSW,10.4,-,N/A,,Clear,250,2012-10-07 15:53:00
11:53 AM,46.4,21.2,37,30.14,10.0,WSW,13.8,-,N/A,,Clear,240,2012-10-07 16:53:00
12:53 PM,48.9,19.0,31,30.12,10.0,SSW,15.0,24.2,N/A,,Clear,200,2012-10-07 17:53:00
1:53 PM,50.0,17.1,27,30.09,10.0,WSW,8.1,21.9,N/A,,Clear,240,2012-10-07 18:53:00
2:53 PM,51.1,18.0,27,30.06,10.0,SSW,11.5,-,N/A,,Clear,210,2012-10-07 19:53:00
3:53 PM,52.0,16.0,24,30.03,10.0,SW,12.7,23.0,N/A,,Clear,230,2012-10-07 20:53:00
4:53 PM,53.1,16.0,23,30.00,10.0,SW,9.2,17.3,N/A,,Clear,220,2012-10-07 21:53:00
5:53 PM,52.0,16.0,24,29.99,10.0,SSW,6.9,-,N/A,,Clear,200,2012-10-07 22:53:00
6:53 PM,46.0,17.1,31,29.97,10.0,South,5.8,-,N/A,,Clear,170,2012-10-07 23:53:00
7:53 PM,44.1,19.9,38,29.97,10.0,SSE,6.9,-,N/A,,Clear,160,2012-10-08 00:53:00
8:53 PM,42.1,23.0,47,29.96,10.0,SSE,8.1,-,N/A,,Clear,160,2012-10-08 01:53:00
9:53 PM,42.1,24.1,49,29.95,10.0,SSE,9.2,-,N/A,,Clear,160,2012-10-08 02:53:00
10:53 PM,42.1,25.0,51,29.93,10.0,South,8.1,-,N/A,,Clear,170,2012-10-08 03:53:00
11:53 PM,41.0,25.0,53,29.92,10.0,SSE,6.9,-,N/A,,Clear,150,2012-10-08 04:53:00